Overview Statistics Trail Chart Weather Telemetry Raw packets
 

This is the latest recevied weather packets stored in our database for station/object OK2ZAW-21. If no packets are shown the sender has not sent any weather packets the latest 10 day(s).

<< 86 87 88 89 90 91 92 >>
Time Temp. Humidity Pressure Rain* Wind** Luminosity Snow
1788030391 17.22° C 79% 1020.2 hPa - - 419 W/m² -
1788030081 17.22° C 81% 1020.2 hPa - - 419 W/m² -
1788029770 17.22° C 80% 1020.2 hPa - - 419 W/m² -
1788029459 17.22° C 80% 1020.1 hPa - - 419 W/m² -
1788029148 17.22° C 79% 1020.1 hPa - - 420 W/m² -
1788028837 17.22° C 77% 1020.1 hPa - - 419 W/m² -
1788028526 17.22° C - - - - - -
1788028216 17.22° C 77% 1020 hPa - - 420 W/m² -
1788027905 17.22° C 77% 1020.1 hPa - - 420 W/m² -
1788027594 17.22° C 76% 1019.4 hPa - - 419 W/m² -
1788027283 17.78° C 74% 1020 hPa - - 420 W/m² -
1788026972 17.78° C 72% 1020 hPa - - 420 W/m² -
1788026661 17.78° C 72% 1019.9 hPa - - 420 W/m² -
1788026350 18.33° C 72% 1019.9 hPa - - 420 W/m² -
1788026040 18.33° C 72% 1019.9 hPa - - 420 W/m² -
1788025729 18.33° C 71% 1019.8 hPa - - 420 W/m² -
1788025418 18.33° C 69% 1019.8 hPa - - 420 W/m² -
1788025107 18.89° C 67% 1019.8 hPa - - 420 W/m² -
1788024795 18.89° C 65% 1019.8 hPa - - 420 W/m² -
1788024484 19.44° C 62% 1019.8 hPa - - 420 W/m² -
1788024173 20.56° C 57% 1019.2 hPa - - 420 W/m² -
1788023862 21.11° C 57% 1019.8 hPa - - 420 W/m² -
1788023550 21.11° C 56% 1019.7 hPa - - 420 W/m² -
1788023239 21.11° C 55% 1019.7 hPa - - 420 W/m² -
1788022927 21.11° C 54% 1019.7 hPa - - 420 W/m² -

* Rain since midnight (hover to see other rain measurements)
** Current wind speed in m/s (hover to see current wind gust speed)